Regional Weather Roundup
Issued by NWS Wakefield, VA

Home | Current Version | Previous Version | Graphics & Text | Print | Product List | Glossary On
Versions: 1 2 3 4 5 6 7 8 9 10 11 12 13 14 15 16 17 18 19 20 21 22 23 24 25 26 27 28 29 30 31 32 33 34 35 36 37 38 39 40 41 42 43 44 45 46 47 48 49 50
000
ASUS41 KAKQ 291715
RWRAKQ

REGIONAL WEATHER ROUNDUP
NATIONAL WEATHER SERVICE WAKEFIELD VA
100 PM EDT FRI MAY 29 2015

Note: "fair" indicates few or no clouds below 12,000 feet with no
significant weather and/or obstructions to visibility. * = Denotes
station may not report precipitation (e.g., rain,snow,etc.),
thunder or fog.

VAZ042-051-052>054-056-291800-
NORTHERN VIRGINIA

CITY           SKY/WX    TMP DP  RH WIND       PRES   REMARKS
WASH NATIONAL  CLOUDY    79  69  71 E7        30.27S
DULLES         PTSUNNY   79  69  71 VRB5      30.26S
FORT BELVOIR   PTSUNNY   79  70  73 VRB3      30.26F
QUANTICO       MOSUNNY   79  70  74 NE6       30.26F
FREDERICKSBRG* MOSUNNY   84  73  67 NE6       30.23F
STAFFORD*      PTSUNNY   81  69  67 E7        30.29F
WARRENTON      MOSUNNY   82  73  74 NE3       30.25F
CULPEPER*      MOSUNNY   80  71  72 E5        30.25F
MANASSAS*      CLOUDY    79  72  78 SE5       30.26F
LEESBURG*      PTSUNNY   81  70  69 SE5       30.28R
WINCHESTER     CLOUDY    79  59  50 CALM      30.27F
FRONT ROYAL*   FAIR      75  70  83 E8        30.26F
LURAY*         CLOUDY    79  70  73 CALM      30.26F
$$

VAZ048-049-060>072-079>083-291800-
CENTRAL AND SOUTH CENTRAL VIRGINIA

CITY           SKY/WX    TMP DP  RH WIND       PRES   REMARKS
RICHMOND       MOSUNNY   86  68  54 SE9       30.24S
CHESTERFIELD*  NOT AVBL
PETERSBURG*    PTSUNNY   84  72  65 SE5       30.24F
HANOVER        PTSUNNY   82  69  64 E5        30.25F
TAPPAHANNOCK*  PTSUNNY   85  64  50 E5        30.25S
QUINTON*       FAIR      83  69  63 SE5       30.24S
CHARLOTTSVILLE CLOUDY    80  69  69 N8        30.26S
GORDONSVILLE*  FAIR      80  70  73 NW3       30.24F
ORANGE*        MOSUNNY   82  72  69 NW5       30.27S
LOUISA*        SUNNY     86  68  54 SE6       30.23F
BUMPASS*       FAIR      85  67  55 S3        30.23F
FARMVILLE*     PTSUNNY   85  65  52 CALM      30.22F
CREWE*         CLOUDY    81  70  68 CALM      30.24S
FORT PICKETT*  CLOUDY    83  70  63 SE5       30.24F
CHASE CITY*    PTSUNNY   83  71  67 CALM      30.24F
CLARKSVILLE*   FAIR      82  68  61 S5        30.24S
SOUTH HILL*    MOSUNNY   82  68  61 CALM      30.30F
LAWRENCEVILLE* FAIR      84  70  61 S6        30.24F
EMPORIA*       SUNNY     84  66  54 SE5       30.26S
$$

VAZ088>098-291800-
SOUTHEAST VIRGINIA

CITY           SKY/WX    TMP DP  RH WIND       PRES   REMARKS
NORFOLK        SUNNY     83  66  56 NE8       30.25S
VIRGINIA BEACH MOSUNNY   83  66  56 SE13      30.25F
NORFOLK NAVAL  MOSUNNY   86  66  51 E9        30.26F
WEST POINT*    SUNNY     87  64  44 SE6       30.26S
SALUDA*        FAIR      79  70  74 E8        30.24F
NEWPORT NEWS   PTSUNNY   86  66  51 VRB7      30.25F
LANGLEY AFB    MOSUNNY   83  66  55 E8        30.24F
FORT EUSTIS    MOSUNNY   82  63  52 S8        30.23F
WILLIAMSBURG*  SUNNY     88  66  48 S7        30.26S
HR EXEC AP*    FAIR      86  63  45 SE7       30.26F
FRANKLIN*      PTSUNNY   82  65  56 CALM      30.25F
WAKEFIELD      MOSUNNY   84  67  56 VRB3      30.25S
$$

VAZ020-022-025-037-045-291800-
WEST CENTRAL AND SOUTHWEST VIRGINIA

CITY           SKY/WX    TMP DP  RH WIND       PRES   REMARKS
STAUNTON*      MOSUNNY   84  68  57 SE7       30.28F
WAYNESBORO*    FAIR      79  67  64 S5        30.28F
HOT SPRINGS VA PTSUNNY   69  60  72 SE6G18    30.37S
LYNCHBURG      HVY RAIN  72  68  87 N7        30.27S FOG
DANVILLE       PTSUNNY   83  66  56 S6        30.24F
SOUTH BOSTON*  CLOUDY    82  69  65 CALM      30.24F
MARTINSVILLE   CLOUDY    82  68  62 NE3       30.28S
ROANOKE        MOSUNNY   81  64  56 SE8       30.26F
BLACKSBURG     CLOUDY    68  64  86 NW6       30.35R
DUBLIN*        MOSUNNY   80  63  56 S5        30.31S
MARION*        PTSUNNY   80  59  49 SE5       30.32F
HILLSVILLE*    PTSUNNY   76  64  64 S8        30.34
RICHLANDS*     FAIR      77  63  60 SW5       30.30F
WISE*          PTSUNNY   77  59  53 S5        30.31F
ABINGDON*      MOSUNNY   80  63  54 CALM      30.27F
$$

MDZ021>025-VAZ099-100-291800-
SOUTHERN MARYLAND AND THE DELMARVA PENINSULA

CITY           SKY/WX    TMP DP  RH WIND       PRES   REMARKS
PATUXENT RIVER MOSUNNY   79  67  66 E7        30.25F
BAY BRIDGE APT   N/A    N/A N/A N/A E3        30.27S
LEONARDTOWN    SUNNY     79  68  69 E7        30.27S
DOVER          MOSUNNY   74  64  69 E9        30.25F
GEORGETOWN     MOSUNNY   81  66  60 NE10      30.27S
EASTON         MOSUNNY   82  68  61 E6        30.30S
CAMBRIDGE      MOSUNNY   82  68  61 SE3       30.25S
SALISBURY      MOSUNNY   83  66  56 VRB3      30.25S
OCEAN CITY     SUNNY     73  64  73 SE7       30.28R
WALLOPS ISLAND SUNNY     79  68  69 S10       30.27S
ACCOMACK*      PTSUNNY   82  68  61 SE6       30.26S
$$

NCZ012>017-030>032-291800-
NORTH CENTRAL AND EASTERN NORTH CAROLINA

CITY           SKY/WX    TMP DP  RH WIND       PRES   REMARKS
ROANOKE RAPIDS PTSUNNY   82  66  57 CALM      30.25S
RALEIGH        MOSUNNY   83  68  60 CALM      30.25F
ELIZABETH CITY SUNNY     81  65  58 E8        30.26F
AHOSKIE*       SUNNY     82  61  48 NE6       30.25S
EDENTON*         N/A     82  65  55 W3        30.25F
CURRITUCK*     SUNNY     79  64  58 E9        30.28S
KILL DEVIL HLS SUNNY     77  65  65 NE8       30.27S
MANTEO         SUNNY     77  67  69 E9        30.27F
CAPE HATTERAS  SUNNY     82  66  58 SE10      30.26S
TARBORO*       FAIR      85  60  42 W3        30.25F
GOLDSBORO      MOSUNNY   84  56  38 SE7       30.22S
WASHINGTON     MOSUNNY   79  63  57 CALM      30.26S
GREENVILLE     SUNNY     82  61  47 E7        30.26S
NEW BERN       MOSUNNY   84  63  49 VRB5      30.25F
WILMINGTON     MOSUNNY   82  65  56 SE10      30.24S
$$

VAZ048-291800-
ELSEWHERE

CITY           SKY/WX    TMP DP  RH WIND       PRES   REMARKS
HARRISBURG PA  SUNNY     80  60  50 SE5       30.26F
BALTIMORE      MOSUNNY   78  62  57 E5        30.26F
ANNAPOLIS      CLOUDY    75  65  70 SE5       30.27S
ANDREWS AFB    CLOUDY    74  69  81 E6        30.26F
PHILADELPHIA   MOSUNNY   83  58  42 NE5       30.26F
HENDERSON NC   PTSUNNY   83  62  50 SW3       30.25F
GREENSBORO     PTSUNNY   81  64  56 SW9       30.24F
ROCKY MOUNT    MOSUNNY   85  65  51 VRB3      30.25F
$$

VAZ100-291800-
MARINE

STATION/POSITION TIME  TEMP    WIND        PRES    WAVE   SWELL
                       AIR SEA DIR/SP/G            HT/PER HT/PER
                 (UTC) (F)     (DEG/KT/KT) (MB)    (FT/S) (FT/S)
BRANDYWINE LGT   1600   69 68   80/  8/  9 1025.4F
CAPE MAY NJ      1600   71 70   80/ 10/ 14 1024.9F
LEWES DE         1600   65 66   90/ 13/ 15 1025.2F
15NM E FENWICK I 1650   67 67              1025.2S   3/ 8
OCEAN-CITY-INLET 1600   69 64  180/  5/  8 1025.0S
WACHAPREAGUE VA  1600   75 76  170/  8/ 10 1025.0R
THOMAS POINT MD  1700   70 70   10/  8/  8 1025.4F
GOOSES REEF MD   1700   74 74   40/  4/  6 1025.6F   1/ 3
COVE POINT MD    1600   76      CALM  /  1 1025.5S
SOLOMONS ISLAND  1600      74                N/A
BISHOPS HEAD MD  1600   76 76  150/  2/  3 1024.6S
PINEY POINT MD   1600          170/  5/  5   N/A
CAMBRIDGE MD     1600   76 75   60/  5/  6 1024.5F
LEWISETTA VA     1600   74 72              1024.3F
RAPPAHANNOCK LGT 1600          190/  6/  7 1025.3F
STINGRAY PT      1700   74 75  160/ 12/ 14 1024.5F   1/ 3
YORK RVR RNG VA  1600   74     120/  6/  7 1024.2R
YORKTOWN VA      1600   76 74   70/  7/  8 1024.3F
JAMESTOWN VA     1700   80 80  120/  6/ 10 1023.3F
DOMINION TERM VA 1600   76     290/  3/  3 1024.7F
KIPTOPEKE VA     1600      76  210/  4/  5   N/A
CHES BAY BRIDGE  1600   72 72   70/  9/ 10 1024.4F
CAPE HENRY VA    1600   72     110/ 10/ 13 1023.8S
CHESAPEAKE LGHT  1600   68     140/ 12/ 12 1025.7F
WILLOUBY STN VA  1600   74      80/  7/  7 1025.5F
CAPE HENRY BUOY  1628      66                N/A     2/ 8
1ST LANDING BUOY 1700      72              1024.4F
CAPE CHARLES BUO 1626      71                N/A     2/ 8   2/ 8
OFFSHORE WE BUOY 1611      68                N/A     3/ 8   3/ 8
64NM E OF VA BCH 1650   69 68   80/  4/  6 1025.0F   3/ 9   3/ 9
DUCK PIER NC     1600   73 60   80/  7/  7 1024.4R
44100 DUCK FRF   1624      71                N/A     3/ 8
44056 DUCK FRF   1611      69                N/A     2/ 8
OREGON INLET NC  1600   75 78   50/  9/ 11 1025.0S
HATTERAS NC      1600   78 76  100/  9/ 11 1024.2F
DIAMOND SHLS NC  1650   77 80  120/ 12/ 16 1024.4F   3/ 9   3/ 9
CAPE LOOKOUT NC  1700   75      50/  9/ 10 1024.1S
$$



USA.gov is the U.S. government's official web portal to all federal, state and local government web resources and services.